パンスターズ彗星

C/2017 K2 ( PanSTARRS )

English version
Home page
Updated on April 25, 2020

---------------------------------------------------------------------

・ プロフィール

発見日 2017年5月21日
発見光度 20.8等
発見者 Pan-STARRS 1 telescope (Haleakala)

・ 写真集

・ 軌道要素

Epoch 2022 Dec. 7.0 TT = JDT 2459920.5
T 2022 Dec. 19.66420 TT                                 Rudenko
q   1.7969746            (2000.0)            P               Q
z  -0.0004787      Peri.  236.19614     +0.01818324     +0.04923198
 +/-0.0000009      Node    88.23542     -0.18096590     +0.98245292
e   1.0008603      Incl.   87.56306     -0.98332127     -0.17989572
From 1815 observations 2013 May 12-2020 Mar. 18, mean residual 0".5.

・ 星図

・ 光度変化

        m1 = 1.0 + 5 logΔ + 10.0 log r

---------------------------------------------------------------------

軌道要素はM.P.E.C. 2020-G65に掲載されたものです。
星図はステラナビゲータ Ver.10 (アストロアーツ) で作成したものです。
光度グラフはComet for Windowsで作成したものです。

---------------------------------------------------------------------

Copyright(C) Seiichi Yoshida (comet@aerith.net). All rights reserved.